Regional Weather Roundup
Issued by NWS

Home | Current Version | Previous Version | Text Only | Print | Product List | Glossary On
Versions: 1 2 3 4 5 6 7 8 9 10 11 12 13 14 15 16 17 18 19 20 21 22 23 24 25 26 27 28 29 30 31 32 33 34 35 36 37 38 39 40 41 42 43 44 45 46 47 48 49 50
000
ASUS43 KMKX 242000
RWRWI

WISCONSIN REGIONAL WEATHER ROUNDUP
NATIONAL WEATHER SERVICE MILWAUKEE/SULLIVAN WI
200 PM CST TUE JAN 24 2017

NOTE: "FAIR" INDICATES FEW OR NO CLOUDS BELOW 12,000 FEET WITH NO
SIGNIFICANT WEATHER AND/OR OBSTRUCTIONS TO VISIBILITY.

WIZ001-002-006>008-014>016-023>028-242100-
NORTHWEST WISCONSIN

CITY           SKY/WX    TMP DP  RH WIND       PRES   REMARKS
SUPERIOR ARPT  CLOUDY    33  26  72 N3        29.83F
ASHLAND        CLOUDY    34  26  72 CALM      29.83F
HAYWARD        CLOUDY    32  26  78 CALM      29.81S
SIREN          CLOUDY    32  27  81 CALM      29.84R
CUMBERLAND     CLOUDY    32  27  80 CALM      29.82S
RICE LAKE      CLOUDY    33  28  82 CALM      29.84R
CHETEK         CLOUDY    33  29  83 CALM      29.83S
LADYSMITH      LGT RAIN  34  31  88 CALM      29.83S
EAU CLAIRE     CLOUDY    34  28  79 CALM      29.81F
MENOMONIE        N/A    N/A N/A N/A MISG        N/A
NEW RICHMOND   CLOUDY    32  28  82 CALM      29.82F
OSCEOLA        CLOUDY    33  28  80 CALM      29.86F
$$

WIZ003>005-009-010-017-018-242100-
NORTH CENTRAL WISCONSIN

CITY           SKY/WX    TMP DP  RH WIND       PRES   REMARKS
MANITOWISH WTR CLOUDY    33  32  97 NW3       29.78S FOG
ARBOR VITAE    CLOUDY    37  32  85 CALM      29.77F
WOODRUFF       CLOUDY    37  32  85 CALM      29.77F
RHINELANDER    CLOUDY    37  31  78 NE5       29.76F WCI  33
EAGLE RIVER    CLOUDY    35  32  90 N6        29.76F WCI  30
LAND O LAKES   CLOUDY    34  32  92 CALM      29.78F
PHILLIPS       CLOUDY    33  30  90 N6        29.78F WCI  27
TOMAHAWK       CLOUDY    35  29  80 NE3       29.78F
MEDFORD        CLOUDY    32  29  88 CALM      29.79S
MERRILL        CLOUDY    36  30  80 CALM        N/A
$$

WIZ029-030-035-036-043>047-242100-
CENTRAL WISCONSIN

CITY           SKY/WX    TMP DP  RH WIND       PRES   REMARKS
WAUSAU         CLOUDY    35  29  78 W3        29.78F
MOSINEE        NOT AVBL
MARSHFIELD     CLOUDY    34  28  79 VRB3      29.79F
STEVENS POINT  CLOUDY    34  29  82 CALM      29.81F
WAUPACA        CLOUDY    39  32  76 CALM      29.82F
WAUTOMA        CLOUDY    37  31  78 CALM      29.83
WISC RAPIDS    CLOUDY    37  30  75 N5        29.82F WCI  33
CAMP DOUGLAS   NOT AVBL
$$

WIZ011>013-019>022-031-037>040-048>050-242100-
NORTHEAST WISCONSIN

CITY           SKY/WX    TMP DP  RH WIND       PRES   REMARKS
ANTIGO         CLOUDY    34  31  89 CALM      29.79R
SHAWANO        CLOUDY    41  33  75 W7        29.80S
OCONTO         CLOUDY    38  34  84 CALM      29.79F
STURGEON BAY   CLOUDY    37  36  96 N6        29.79F WCI  32
GREEN BAY      CLOUDY    42  36  79 W8        29.81R
MANITOWOC      NOT AVBL
APPLETON       CLOUDY    36  36 100 NW5       29.80S WCI  32
CLINTONVILLE   CLOUDY    37  32  81 NW5       29.81S WCI  34
OSHKOSH        CLOUDY    38  32  79 W5        29.81S WCI  34
$$

WIZ032>034-041-042-053>061-242100-
SOUTHWEST WISCONSIN

CITY           SKY/WX    TMP DP  RH WIND       PRES   REMARKS
LA CROSSE      CLOUDY    38  30  73 E3        29.81F
SPARTA         CLOUDY    34  32  92 CALM      29.83F
VIROQUA        CLOUDY    34  32  93 E5        29.79F WCI  30
BOSCOBEL       CLOUDY    38  31  76 E5        29.82F WCI  34
PRAIRIE DU CHI CLOUDY    35  30  83 SE7       29.81F WCI  29
PLATTEVILLE    CLOUDY    35  33  95 SE6       29.81F WCI  30
$$

WIZ056-057-062-063-064-067-068-242100-
SOUTH CENTRAL WISCONSIN

CITY           SKY/WX    TMP DP  RH WIND       PRES   REMARKS
REEDSBURG      CLOUDY    36  31  84 CALM      29.81F
BARABOO/DELLS  CLOUDY    36  31  82 NE3       29.81F
LONE ROCK      NOT AVBL
MINERAL POINT  CLOUDY    36  34  93 SE5       29.80F WCI  32
MADISON        CLOUDY    37  31  78 CALM      29.82F
MIDDLETON      CLOUDY    38  33  82 E5        29.82F WCI  34
WATERTOWN      CLOUDY    36  33  90 N3        29.82F
MONROE         CLOUDY    34  32  93 SE5       29.81F WCI  30
JANESVILLE     CLOUDY    36  34  93 S3        29.83F
$$

WIZ051-052-058>065-066-070>072-242100-
SOUTHEAST WISCONSIN

CITY           SKY/WX    TMP DP  RH WIND       PRES   REMARKS
MILWAUKEE      CLOUDY    39  32  76 W8        29.83F WCI  33
WAUKESHA       CLOUDY    36  32  87 NW6       29.83F WCI  31
MILWAUKEE/TIMM CLOUDY    37  30  75 W5        29.83F WCI  34
RACINE         CLOUDY    37  32  82 W3        29.84F
KENOSHA        CLOUDY    37  32  82 CALM      29.83F
FOND DU LAC    CLOUDY    39  31  72 NW6       29.82S WCI  35
SHEBOYGAN      CLOUDY    38  33  82 W5        29.81S WCI  34
WEST BEND      CLOUDY    36  34  93 W5        29.82S WCI  32
JUNEAU         CLOUDY    35  32  87 NW3       29.83F
$$

LSZ147-162-242100-
LAKE SUPERIOR

STATION/POSITION TIME  TEMP    WIND        PRES    WAVE
                       AIR SEA DIR/SP/G            HT/PER
                 (UTC) (F)     (DEG/KT/KT) (MB)    (FT/S)
DEVILS ISLAND    1900   33     250/  9/ 10 1011.1F
PORT WING        1940   33     270/  5/  6 1010.5F
SAXON HARBOR     1940   34     310/  6/  9 1009.8F
$$

LMZ867-665-643>646-242100-
LAKE MICHIGAN

STATION/POSITION TIME  TEMP    WIND        PRES    WAVE
                       AIR SEA DIR/SP/G            HT/PER
                 (UTC) (F)     (DEG/KT/KT) (MB)    (FT/S)
NORTHPORT PIER   1940   36     310/  8/ 11 1008.8S
SISTER BAY       1935   36        CALM       N/A
KEWAUNEE LAKESHO 1930   39     350/  3/  6 1008.6F
SHEBOYGAN LAKESH 1900   38     350/  6/  7 1009.7F
PORT WASHINGTON  1930   39     300/  6/  8 1010.8S
KENOSHA   LAKESH 1900   36     310/  3/  7 1010.8
$$

TC  - TEMPERATURE IN CELSIUS
VSB - VISIBILITY IN STATUTE MILES
WCI - WIND CHILL INDEX
HX  - HEAT INDEX




USA.gov is the U.S. government's official web portal to all federal, state and local government web resources and services.